Main page
METAR-TAF:

METAR-TAF

Airports :

Pontoise – Cormeilles Aerodrome

Pontoise, France

latitude: 49-05-48N, longitude: 002-02-27E, elevation: 99 m

Current weather observation

The report was made 36 minutes ago, at 18:30 UTC
Wind 4 kt from the Southwest
Temperature 3°C
Humidity 87%
Pressure 1028 hPa
Visibility 10 km or more
Few clouds at a height of 1600 ft
Overcast at a height of 2500 ft

METAR: LFPT 291830Z AUTO 23004KT 9999 FEW016 OVC025 03/01 Q1028

Time: 20:06 (19:06 UTC)


TAF: missing

Weather observations and forecasts of more than 4000 airports (METAR and TAF reports).

The available stations are represented by yellow and red dots on the map.

Hover mouse over dot to see the name of the station.

Then click to see weather observations and forecasts.

To change the map : click on the green buttons with a black cross to zoom in, on the green button with a dash to zoom out, or on the green arrows for adjacent maps.


METAR-TAF: